Theta_e
318 317 313 317 321 317 320 322 322 325 327 327 340 346 345 348 354 360 343 344 348 348 346 348 350 352 350 347 342 338 334 330 330 330 329 328 328 328 330 334 337 338 339 337 335 336 334 329 324
317 314 317 315 321 324 325 323 325 325 326 326 331 345 346 349 345 343 343 344 348 347 345 347 350 351 350 346 342 339 335 331 330 330 328 327 327 330 330 331 334 335 337 337 336 334 332 329 324
313 314 313 316 317 326 328 325 325 326 326 327 329 351 352 354 346 342 348 347 351 347 346 347 348 349 349 346 343 340 336 332 331 331 329 327 328 329 330 332 333 334 334 337 336 334 332 326 324
317 313 316 318 319 321 325 325 324 325 326 326 327 348 351 346 343 349 353 353 350 347 346 346 347 348 348 346 343 340 336 332 332 332 330 329 333 333 335 337 338 340 338 337 335 335 332 325 324
317 308 317 317 319 317 321 323 324 325 325 326 326 342 353 347 348 353 355 352 349 348 347 345 346 346 347 347 344 341 338 333 333 333 331 329 334 340 340 340 340 339 338 338 336 333 330 325 325
312 307 309 318 318 320 319 318 318 319 319 321 325 355 355 350 354 356 355 352 349 347 347 345 344 345 345 347 345 343 339 333 334 334 333 330 332 339 339 341 342 342 339 335 330 328 327 325 326
312 308 309 310 315 318 317 315 317 318 317 319 321 345 354 354 355 356 354 352 350 348 346 345 343 343 344 346 346 344 340 334 336 335 334 331 328 334 338 340 340 339 338 333 332 329 327 325 326
314 313 316 309 313 310 311 313 314 315 318 320 322 336 361 355 355 356 354 355 354 351 347 345 345 344 346 348 347 344 340 336 337 337 336 333 327 331 336 339 336 336 337 334 333 331 330 329 327
316 317 316 315 313 311 310 311 313 316 317 319 321 327 355 356 356 356 356 356 355 354 349 346 346 347 351 349 347 344 340 338 339 339 337 334 328 332 338 336 332 332 333 333 333 332 331 330 330
317 320 318 316 315 313 311 312 313 318 320 320 319 339 354 357 356 355 356 356 355 354 350 345 345 347 357 353 348 344 342 340 341 341 339 336 329 334 336 333 332 328 327 327 329 330 330 330 330
316 322 318 319 318 314 315 317 318 319 320 319 318 353 354 355 355 355 356 356 354 353 351 347 344 347 351 351 352 347 345 343 343 341 339 336 331 334 335 334 335 337 335 330 327 325 326 326 327
312 316 321 321 320 321 320 319 320 319 318 319 318 352 353 354 355 353 356 355 353 352 351 347 343 346 350 348 348 345 344 342 342 340 338 334 330 339 337 341 340 339 338 338 334 330 330 332 336
312 312 314 318 320 321 320 322 321 320 320 319 318 321 353 352 352 353 355 355 352 350 349 348 343 343 347 345 344 344 342 339 338 336 334 331 335 341 343 340 341 340 340 341 339 336 339 340 341
312 314 314 313 314 320 323 323 320 321 320 318 318 317 325 346 346 349 351 354 351 348 346 346 345 346 343 342 341 339 337 334 334 334 334 329 336 339 342 342 338 344 344 344 343 341 341 343 343
313 313 313 313 315 315 316 316 319 321 319 317 317 318 315 317 329 337 339 353 350 346 346 344 343 343 343 343 341 335 334 334 336 335 337 338 333 339 344 343 341 345 344 345 345 344 344 343 341
317 314 314 314 314 316 315 317 318 318 317 317 317 317 319 316 319 329 351 350 348 346 345 342 342 343 344 345 342 339 337 342 341 342 342 343 337 339 345 347 345 346 346 347 345 344 343 342 342
316 320 315 315 314 316 316 318 317 318 317 316 316 315 318 315 316 333 350 349 348 347 345 342 343 343 338 338 347 343 343 345 346 346 346 346 343 341 347 351 348 348 347 348 345 344 344 345 345
317 319 319 318 316 316 318 318 318 318 317 317 315 315 316 316 316 325 347 349 348 347 345 344 342 337 336 344 350 351 345 346 346 346 347 347 347 345 350 350 349 349 348 348 347 347 345 344 343
314 318 318 316 317 317 318 319 318 318 317 316 315 314 314 315 314 318 345 345 346 346 345 343 342 340 338 340 348 352 347 352 348 348 349 351 348 347 347 348 348 347 347 347 347 346 345 342 339
311 315 319 319 317 316 318 319 318 317 319 318 315 315 314 315 315 315 333 340 341 342 340 340 340 337 337 339 350 352 351 351 350 352 351 352 349 351 351 349 348 348 348 348 348 347 342 340 337
314 317 319 321 320 319 316 318 318 317 317 318 316 316 314 315 315 315 315 338 337 338 338 337 338 338 339 344 341 350 348 350 347 348 348 353 352 351 350 349 348 348 347 346 345 343 341 338 336
311 312 316 320 321 322 317 318 317 318 318 317 317 314 315 315 316 314 316 344 342 337 337 339 338 339 339 336 339 343 346 348 348 349 349 349 349 350 349 349 347 347 343 342 342 340 339 337 336
315 310 314 316 317 318 319 319 317 317 318 317 317 315 314 314 314 313 315 346 354 348 340 337 340 338 335 337 343 347 350 349 348 347 350 350 350 349 348 347 345 343 341 341 342 339 334 335 338
315 316 312 311 311 318 318 319 319 318 319 319 317 315 315 314 314 313 319 350 352 353 352 351 350 352 351 351 349 349 349 349 349 348 349 348 346 346 345 344 342 341 340 340 340 340 338 337 337
316 316 315 313 315 318 316 319 318 319 319 320 318 317 316 314 314 315 345 348 348 346 346 352 352 352 351 351 352 349 349 349 348 347 346 345 344 343 343 342 341 341 338 337 337 334 330 330 329
316 315 317 324 323 317 317 321 320 319 319 319 319 318 316 314 313 318 347 348 345 338 339 344 349 351 350 351 349 348 347 346 346 347 345 343 342 339 337 335 333 332 331 330 328 327 325 322 321
319 319 316 319 322 319 317 320 320 319 321 318 317 317 316 315 314 328 345 348 343 343 347 347 347 348 348 347 346 344 343 343 343 344 342 338 335 333 330 329 327 325 323 321 320 318 317 316 316
319 316 320 319 324 324 319 319 320 319 333 339 328 317 315 314 319 330 350 349 349 349 347 346 344 340 342 342 340 336 334 334 334 335 331 329 327 325 323 320 319 317 316 315 315 315 314 314 313
321 319 319 318 322 321 321 319 327 333 335 339 334 324 320 330 344 348 348 348 346 343 340 338 336 335 332 332 329 331 331 327 327 324 321 320 320 319 317 315 315 314 313 313 313 312 310 310 309
319 319 316 317 319 322 318 317 330 332 341 339 339 341 344 345 346 346 344 343 339 336 332 329 327 325 325 325 325 322 326 323 321 318 315 314 312 313 313 314 313 312 311 310 309 308 307 306 306
Wind_Speed
11 9 5 1 2 3 4 9 5 15 5 3 5 6 14 17 12 5 28 39 27 39 33 30 28 28 28 26 25 23 21 21 20 20 20 21 22 22 23 22 21 19 18 17 16 14 12 11 11
7 1 2 1 4 3 7 7 20 16 7 15 4 7 7 9 5 4 7 22 27 44 38 34 31 30 28 27 26 24 22 21 21 20 20 21 22 21 21 20 19 17 16 15 14 12 11 10 11
3 3 3 4 5 11 10 11 18 2 8 7 5 2 7 5 5 9 11 26 36 44 37 36 33 31 29 28 26 24 22 22 21 20 20 21 22 22 20 18 16 15 14 13 12 11 9 9 10
1 3 3 3 9 12 18 8 4 4 11 8 6 3 1 7 14 21 37 38 44 43 39 34 32 32 29 28 27 25 23 22 20 19 19 20 20 21 19 16 15 13 13 12 11 10 8 8 10
3 3 3 5 11 7 13 14 12 13 9 16 5 3 6 3 9 35 39 45 50 43 38 34 31 29 28 27 26 25 23 21 19 17 18 19 20 19 17 15 13 12 11 10 9 8 8 8 9
1 3 2 15 9 19 16 11 7 11 8 19 5 4 5 9 32 30 32 45 52 48 39 33 29 27 26 26 25 24 23 22 20 18 17 18 19 17 15 13 11 10 9 8 8 7 8 9 10
6 4 6 5 11 20 14 3 13 16 12 20 3 6 1 11 29 37 36 38 45 43 39 33 29 27 26 26 25 24 23 22 19 17 16 17 18 17 14 12 11 10 9 7 7 7 7 8 10
5 4 4 7 12 12 5 6 7 11 17 24 6 7 9 20 28 30 30 31 36 39 38 33 30 27 26 26 25 24 22 21 20 18 17 17 18 17 14 12 10 9 9 8 7 6 6 7 8
3 3 13 13 12 9 4 4 5 4 12 13 11 9 16 28 28 27 26 25 29 29 35 35 31 27 24 25 25 23 22 21 20 18 17 17 18 17 15 12 10 9 9 7 6 6 6 7 8
6 9 16 4 11 7 8 6 5 8 14 13 16 6 35 41 35 27 24 24 27 30 35 36 32 29 26 25 26 25 23 22 21 19 19 18 18 17 14 11 9 8 8 8 8 8 8 9 9
6 16 21 6 9 9 13 17 4 10 17 7 10 16 26 27 26 24 27 37 38 36 35 37 35 32 29 26 24 24 22 22 20 17 17 16 16 15 13 12 11 10 9 10 10 10 11 10 11
7 11 18 3 6 10 21 11 15 5 9 13 10 17 20 24 20 18 22 27 31 34 35 41 36 30 27 28 26 26 23 21 19 18 17 17 17 15 14 12 10 10 11 10 11 12 11 10 11
16 14 5 11 13 13 12 19 10 19 14 15 7 8 24 24 24 29 33 33 32 30 30 35 38 35 29 24 25 24 21 20 19 18 17 18 18 15 14 14 13 12 14 12 10 12 11 12 14
4 12 20 14 14 12 22 22 6 23 5 11 6 3 9 21 22 24 25 30 31 30 34 37 35 31 25 21 22 22 21 19 19 19 19 20 19 16 14 17 15 10 14 14 14 14 12 7 10
12 15 15 16 21 16 6 17 30 24 5 11 10 7 5 9 7 17 27 31 35 39 43 42 36 30 26 22 21 25 24 21 21 22 20 20 22 20 14 19 16 13 11 11 14 15 14 14 10
2 4 13 25 12 17 12 28 26 9 8 11 10 7 5 8 10 8 31 37 41 44 46 47 39 35 30 21 27 28 29 24 23 23 22 20 23 22 16 18 17 9 7 13 15 15 18 13 9
4 9 14 12 14 9 18 23 20 8 9 10 8 8 5 4 7 22 25 38 41 46 50 51 49 44 24 30 36 34 32 29 27 27 25 25 23 24 17 16 15 11 7 3 8 10 10 11 10
15 15 10 14 7 15 20 19 11 8 11 10 8 9 7 6 6 23 29 32 38 45 53 55 48 34 27 35 26 28 30 28 31 29 29 29 28 25 21 16 12 10 7 7 8 7 7 7 10
13 14 10 8 7 13 18 21 13 13 6 9 9 9 9 9 8 15 31 34 33 35 37 39 37 36 37 30 26 30 31 27 28 26 31 31 33 27 24 17 15 13 14 11 10 9 9 8 4
17 17 16 14 10 9 16 22 13 10 16 12 10 10 10 7 8 8 25 29 33 38 38 39 37 47 42 37 33 24 22 19 17 19 21 24 28 25 19 14 11 12 8 5 9 8 7 5 7
16 16 13 14 12 11 8 14 7 11 10 14 10 10 9 12 11 9 11 29 33 33 37 40 44 42 40 36 29 24 18 17 15 15 21 22 20 14 13 12 9 7 7 10 8 7 6 7 3
15 13 16 12 12 7 6 10 9 18 15 13 17 11 12 12 7 8 10 18 30 34 39 43 37 35 38 36 34 29 27 20 22 32 21 18 13 12 10 9 7 5 6 6 5 4 5 6 8
13 14 12 14 12 4 14 3 8 9 16 15 17 13 12 11 11 11 10 18 31 35 39 46 39 39 42 40 30 33 34 36 32 26 22 16 15 15 12 8 5 3 4 4 5 3 4 7 11
11 8 14 10 3 8 16 7 5 6 21 25 12 12 13 10 9 10 12 23 26 29 33 39 38 38 38 38 35 32 34 31 24 21 17 18 17 12 9 7 4 1 3 2 2 2 4 6 6
6 1 4 5 6 6 8 7 10 10 10 14 17 12 10 10 10 9 14 13 25 28 32 38 36 28 23 21 23 21 21 19 12 18 18 15 15 12 9 6 5 4 3 3 3 6 7 9 9
10 9 4 5 7 8 9 9 8 20 11 12 19 17 13 12 10 12 16 16 24 25 29 29 27 22 15 16 12 7 11 13 22 21 23 19 16 15 13 13 10 8 5 5 7 7 9 11 11
5 9 10 2 3 3 3 5 4 8 4 8 11 10 11 10 11 12 15 18 24 26 25 27 25 25 21 22 20 16 19 26 30 29 25 21 19 17 15 13 11 10 10 10 9 11 12 12 13
5 4 7 4 4 5 6 13 6 5 5 8 8 10 10 9 11 12 16 19 27 27 27 31 34 35 34 33 30 29 31 34 33 31 28 24 20 16 15 14 12 10 9 10 11 12 13 15 16
4 3 2 5 4 4 8 5 3 3 5 7 4 9 10 14 17 19 16 24 29 30 32 32 36 36 35 34 33 34 33 30 29 27 23 20 17 14 13 12 10 12 14 15 15 16 18 19 20
2 6 8 4 6 1 3 3 6 8 3 3 11 17 19 24 22 21 20 24 28 30 31 31 32 32 35 37 37 34 31 27 26 23 20 18 20 18 15 12 15 16 18 19 20 21 21 20 20
Wind_Direction
263 275 289 20 68 71 241 245 289 269 306 211 82 143 162 155 158 209 181 188 184 172 173 172 170 164 159 157 155 153 150 144 141 138 138 136 135 136 137 138 139 140 141 138 136 139 142 137 137
272 231 173 92 138 203 248 230 253 246 283 293 331 116 100 192 174 293 147 166 181 174 172 171 172 167 164 160 158 156 154 151 148 146 145 143 142 142 142 144 146 148 151 150 146 145 145 147 144
301 196 112 161 186 214 238 202 241 70 272 318 355 211 142 209 177 161 169 159 173 170 171 172 171 169 167 163 161 160 161 158 154 150 150 149 148 148 148 148 151 155 159 160 158 156 154 153 150
83 27 340 187 221 236 234 235 267 13 308 290 118 286 304 213 154 158 155 160 166 167 175 173 172 170 168 167 164 163 163 161 155 152 152 152 151 150 151 151 155 157 155 162 165 165 165 163 157
196 69 228 227 240 249 252 254 274 275 282 279 325 228 197 254 145 148 157 160 164 169 174 170 174 171 169 170 168 165 165 164 159 157 157 157 158 155 157 155 157 160 163 170 176 178 176 171 170
131 121 178 229 231 244 252 249 264 262 267 280 311 114 208 229 138 151 155 154 167 168 171 168 173 173 171 171 171 167 168 167 164 162 162 164 166 163 165 163 164 169 174 181 179 182 183 180 179
157 127 214 212 238 254 243 220 245 264 258 268 212 174 284 180 158 153 155 154 166 168 167 167 173 176 175 174 174 171 170 169 168 168 167 170 173 172 173 174 174 177 180 184 186 186 192 196 197
165 127 228 214 230 257 232 235 242 245 263 260 195 184 170 198 162 147 143 150 158 167 168 168 173 174 175 175 176 172 171 173 173 175 173 173 176 177 179 183 182 185 185 186 195 199 208 218 222
171 192 231 224 208 242 285 243 236 274 259 284 243 186 179 164 147 138 131 138 153 161 170 173 172 172 170 174 176 175 175 176 178 178 177 178 180 180 182 186 183 184 191 192 204 218 225 233 241
190 219 229 177 212 236 262 236 336 326 313 306 308 208 149 153 155 152 153 155 157 164 174 176 172 172 169 172 176 179 178 180 183 184 182 183 183 185 185 187 186 185 202 206 214 224 233 243 252
209 233 230 256 238 232 258 274 280 293 285 282 325 157 145 157 163 163 165 165 172 170 167 176 176 175 174 173 175 179 181 184 188 189 190 187 187 191 190 192 194 202 212 222 224 233 238 249 262
258 239 239 219 250 235 257 290 268 239 266 282 316 171 157 156 168 171 164 164 160 167 167 175 177 172 174 181 180 182 187 188 191 194 194 190 188 186 194 200 207 219 228 236 239 244 252 257 265
229 238 261 241 253 269 271 264 284 271 271 281 309 283 168 169 174 177 175 171 163 161 161 165 173 174 181 185 186 188 190 193 197 197 196 197 196 195 206 215 222 238 243 247 247 248 256 269 274
235 215 246 246 253 244 250 271 283 263 272 282 270 237 235 178 178 174 170 172 162 151 154 161 168 171 177 184 194 195 196 200 204 203 199 198 200 200 213 217 222 238 248 250 255 253 260 260 267
269 278 271 251 239 247 253 269 243 255 257 268 266 209 218 229 199 173 155 168 152 151 155 161 167 168 176 182 199 202 202 199 208 211 210 204 203 205 213 217 221 232 243 251 257 254 240 245 262
303 242 244 250 231 238 190 250 256 254 207 253 259 255 199 200 203 116 133 139 145 147 153 158 161 173 173 176 208 204 202 197 206 212 211 209 208 207 213 219 222 236 241 251 227 227 220 249 280
245 247 235 260 223 222 206 247 255 238 203 231 251 265 252 203 149 111 132 140 147 150 155 162 168 176 198 202 206 209 211 190 202 209 210 212 209 208 210 214 216 229 246 274 238 249 274 275 278
221 234 248 245 209 222 238 244 241 233 197 215 236 249 237 216 224 126 140 147 153 158 164 169 174 177 194 194 194 218 217 210 211 214 218 221 213 208 204 207 215 235 240 237 259 268 274 279 293
253 267 258 253 221 212 230 240 246 226 221 209 217 234 242 222 200 137 149 154 151 157 162 174 177 193 183 194 205 205 203 218 215 218 221 223 215 212 211 218 233 247 259 258 266 282 293 293 291
239 254 267 274 263 224 234 237 229 218 227 220 203 222 225 227 203 135 147 153 159 166 172 176 182 176 191 210 198 196 195 191 200 213 216 206 200 205 205 213 234 248 253 278 290 290 282 275 307
233 238 243 254 272 291 236 249 223 235 232 214 220 212 208 208 217 138 154 162 165 167 174 178 188 194 194 205 207 196 196 204 179 222 206 174 176 198 210 223 228 240 279 284 292 290 269 284 255
243 245 258 262 246 236 178 247 211 219 209 211 217 210 214 219 194 157 179 153 163 173 176 180 184 191 196 204 189 184 204 201 197 203 197 206 180 197 205 208 228 269 285 293 300 287 280 263 270
260 227 232 255 263 261 267 275 246 194 214 217 218 209 202 205 177 166 190 150 166 163 173 179 182 189 207 212 202 201 204 211 202 203 185 165 156 177 179 195 207 222 283 308 285 292 286 277 282
237 300 235 244 234 235 236 200 268 192 201 218 214 206 191 188 176 183 173 147 152 165 162 168 183 187 198 197 201 210 210 208 204 194 181 142 138 146 144 153 149 80 338 327 339 1 349 336 320
216 111 185 227 200 226 191 211 244 265 222 202 204 200 193 172 169 161 152 151 146 155 160 159 171 174 189 200 197 195 214 203 196 173 154 153 129 119 104 108 95 94 75 56 66 51 33 32 20
216 188 172 202 157 219 164 205 234 232 247 225 194 190 188 173 169 160 159 159 151 150 150 156 163 157 175 181 159 118 161 175 183 145 131 122 104 90 91 94 93 81 64 45 40 35 21 12 21
181 191 201 317 187 93 199 227 289 253 254 219 191 166 186 173 153 150 157 148 142 142 144 139 126 122 124 122 126 115 116 122 126 122 115 110 105 100 95 96 93 77 63 54 39 34 23 9 13
185 152 157 255 195 161 184 214 224 204 211 270 191 183 180 153 134 132 132 133 128 124 125 116 115 109 115 119 121 114 108 108 109 113 110 109 107 109 100 87 79 68 54 37 24 21 12 2 360
150 134 170 200 257 156 167 240 320 319 247 219 257 189 135 115 118 123 123 122 121 113 110 110 109 109 109 114 112 115 109 104 102 101 100 101 99 88 80 75 69 60 48 38 25 12 357 352 347
144 161 191 140 211 285 175 251 313 253 152 205 103 119 119 117 119 122 114 114 110 104 104 102 102 104 109 114 113 106 109 105 100 94 88 85 82 80 79 78 73 59 43 27 13 1 357 356 358